TimeEST,TemperatureF,Dew PointF,Humidity,Sea Level PressureIn,VisibilityMPH,Wind Direction,Wind SpeedMPH,Gust SpeedMPH,PrecipitationIn,Events,Conditions,WindDirDegrees,DateUTC
12:04 AM,51.8,44.6,76,29.84,10.0,South,12.7,21.9,N/A,Rain,Light Rain,180,2013-02-08 05:04:00
12:16 AM,51.8,44.6,76,29.85,10.0,South,11.5,-,N/A,,Overcast,180,2013-02-08 05:16:00
12:47 AM,50.0,44.6,82,29.85,10.0,South,9.2,-,N/A,Rain,Light Rain,190,2013-02-08 05:47:00
12:55 AM,50.5,45.0,81,29.85,10.0,SSW,8.1,-,0.00,Rain,Light Rain,200,2013-02-08 05:55:00
1:09 AM,50.0,46.4,87,29.85,9.0,South,8.1,-,N/A,Rain,Light Rain,190,2013-02-08 06:09:00
1:10 AM,50.0,46.4,87,29.85,9.0,South,6.9,-,N/A,Rain,Light Rain,190,2013-02-08 06:10:00
1:14 AM,50.0,46.4,87,29.85,9.0,South,6.9,-,N/A,Rain,Light Rain,190,2013-02-08 06:14:00
1:55 AM,49.3,47.3,93,29.84,10.0,SSW,8.1,-,0.04,Rain,Light Rain,200,2013-02-08 06:55:00
2:12 AM,50.0,48.2,94,29.84,10.0,SW,9.2,-,N/A,Rain,Light Rain,220,2013-02-08 07:12:00
2:26 AM,50.0,48.2,94,29.84,10.0,SW,9.2,-,N/A,Rain,Light Rain,230,2013-02-08 07:26:00
2:36 AM,50.0,48.2,94,29.85,10.0,SW,10.4,-,N/A,,Overcast,220,2013-02-08 07:36:00
2:38 AM,50.0,48.2,94,29.85,10.0,SW,9.2,-,N/A,,Light Drizzle,220,2013-02-08 07:38:00
2:51 AM,50.0,48.2,94,29.85,10.0,SSW,10.4,-,N/A,Rain,Light Rain,210,2013-02-08 07:51:00
2:55 AM,49.3,48.0,95,29.85,8.0,WSW,11.5,-,0.02,Rain,Light Rain,240,2013-02-08 07:55:00
2:58 AM,50.0,48.2,94,29.86,7.0,WSW,8.1,-,N/A,Rain,Light Rain,250,2013-02-08 07:58:00
3:02 AM,50.0,48.2,94,29.85,6.0,WSW,9.2,-,N/A,Rain,Light Rain,250,2013-02-08 08:02:00
3:05 AM,50.0,48.2,94,29.86,6.0,West,9.2,-,N/A,Rain,Light Rain,260,2013-02-08 08:05:00
3:07 AM,50.0,48.2,94,29.86,6.0,West,6.9,-,N/A,Rain,Light Rain,260,2013-02-08 08:07:00
3:30 AM,46.4,44.6,93,29.87,9.0,WNW,16.1,-,N/A,Rain,Light Rain,300,2013-02-08 08:30:00
3:43 AM,46.4,44.6,93,29.88,10.0,WNW,13.8,-,N/A,Rain,Light Rain,300,2013-02-08 08:43:00
3:55 AM,45.1,43.5,94,29.88,10.0,WNW,16.1,-,0.03,Rain,Light Rain,300,2013-02-08 08:55:00
4:19 AM,44.6,42.8,93,29.90,10.0,WNW,17.3,21.9,N/A,Rain,Light Rain,300,2013-02-08 09:19:00
4:40 AM,42.8,41.0,93,29.91,10.0,WNW,15.0,-,N/A,Rain,Light Rain,300,2013-02-08 09:40:00
4:49 AM,42.8,41.0,93,29.91,10.0,WNW,16.1,21.9,N/A,Rain,Light Rain,300,2013-02-08 09:49:00
4:55 AM,42.3,40.3,93,29.91,10.0,WNW,16.1,-,0.02,,Overcast,300,2013-02-08 09:55:00
5:55 AM,40.5,38.5,93,29.96,10.0,NW,15.0,-,N/A,,Overcast,320,2013-02-08 10:55:00
5:59 AM,41.0,37.4,87,29.96,10.0,NW,9.2,-,N/A,,Overcast,310,2013-02-08 10:59:00
6:01 AM,41.0,37.4,87,29.96,10.0,NW,10.4,-,N/A,,Overcast,310,2013-02-08 11:01:00
6:03 AM,41.0,37.4,87,29.96,10.0,NW,11.5,-,N/A,,Overcast,310,2013-02-08 11:03:00
6:31 AM,39.2,37.4,93,29.98,10.0,WNW,13.8,18.4,N/A,,Overcast,300,2013-02-08 11:31:00
6:43 AM,39.2,35.6,87,29.99,10.0,WNW,9.2,-,N/A,,Overcast,300,2013-02-08 11:43:00
6:48 AM,39.2,35.6,87,30.00,10.0,WNW,12.7,-,N/A,,Overcast,300,2013-02-08 11:48:00
6:55 AM,38.5,35.8,90,30.01,10.0,WNW,16.1,-,N/A,,Overcast,290,2013-02-08 11:55:00
7:55 AM,37.4,34.0,87,30.04,10.0,NW,8.1,17.3,N/A,,Overcast,310,2013-02-08 12:55:00
8:55 AM,36.3,32.2,85,30.08,10.0,WNW,10.4,-,N/A,,Overcast,290,2013-02-08 13:55:00
9:55 AM,35.8,31.3,84,30.12,10.0,WNW,12.7,21.9,N/A,,Overcast,300,2013-02-08 14:55:00
10:31 AM,35.6,32.0,87,30.11,10.0,NW,11.5,19.6,N/A,,Overcast,310,2013-02-08 15:31:00
10:55 AM,36.1,31.1,82,30.15,10.0,WNW,10.4,18.4,N/A,,Overcast,300,2013-02-08 15:55:00
11:55 AM,36.0,30.9,82,30.18,10.0,WNW,9.2,-,N/A,,Overcast,300,2013-02-08 16:55:00
12:55 PM,36.3,30.2,78,30.18,10.0,WNW,13.8,-,N/A,,Overcast,300,2013-02-08 17:55:00
1:55 PM,36.3,30.2,78,30.20,10.0,NW,12.7,-,N/A,,Overcast,310,2013-02-08 18:55:00
2:55 PM,36.9,29.1,74,30.20,7.0,NW,6.9,-,N/A,,Overcast,320,2013-02-08 19:55:00
3:55 PM,36.7,29.7,76,30.22,10.0,NNW,11.5,-,N/A,,Overcast,340,2013-02-08 20:55:00
4:55 PM,35.4,28.6,76,30.25,10.0,NNW,10.4,-,N/A,,Overcast,330,2013-02-08 21:55:00
5:55 PM,34.7,28.2,77,30.28,10.0,NNW,8.1,-,N/A,,Overcast,330,2013-02-08 22:55:00
6:55 PM,34.5,28.2,78,30.30,10.0,NNW,6.9,-,N/A,,Overcast,330,2013-02-08 23:55:00
7:55 PM,33.6,26.4,75,30.33,10.0,North,11.5,-,N/A,,Overcast,350,2013-02-09 00:55:00
8:55 PM,33.4,25.9,74,30.35,10.0,North,9.2,-,N/A,,Overcast,350,2013-02-09 01:55:00
9:55 PM,33.3,25.5,73,30.34,10.0,NW,3.5,-,N/A,,Overcast,310,2013-02-09 02:55:00
10:55 PM,32.4,25.7,76,30.35,10.0,WNW,3.5,-,N/A,,Overcast,300,2013-02-09 03:55:00
11:44 PM,30.2,26.6,86,30.36,10.0,NW,3.5,-,N/A,,Overcast,310,2013-02-09 04:44:00
11:55 PM,30.2,25.5,83,30.36,10.0,NNW,3.5,-,N/A,,Scattered Clouds,330,2013-02-09 04:55:00